This demonstration page uses our WeatherBlox Daily Observations layout. Learn more.

39.29038, -76.61219

Hourly Observations for April 5, 2018

Temp ( °F °C ) Dew Point ( °F °C ) Humidity (%) Winds ( mph kmh ) Pressure ( in mb ) Visibility ( mi km ) Precip ( " mm )
12:54 am 00:54 undefined 42 5.6 19 -7.2 40 40 undefined N/A 30.05 1018 N/A 0 0
1:54 am 01:54 undefined 41 5 19 -7.2 41 41 undefined N/A 30.08 1019 N/A 0 0
2:54 am 02:54 undefined 40 4.4 17 -8.3 40 40 undefined N/A 30.06 1018 N/A 0 0
3:54 am 03:54 undefined 39 3.9 16 -8.9 39 39 undefined N/A 30.09 1019 N/A 0 0
4:54 am 04:54 undefined 38 3.3 17 -8.3 43 43 undefined N/A 30.1 1019 N/A 0 0
5:54 am 05:54 undefined 37 2.8 17 -8.3 44 44 undefined N/A 30.12 1020 N/A 0 0
6:54 am 06:54 undefined 37 2.8 15 -9.4 41 41 undefined N/A 30.15 1021 N/A 0 0
7:54 am 07:54 undefined 38 3.3 14 -10 37 37 undefined N/A 30.19 1022 N/A 0 0
8:54 am 08:54 undefined 39 3.9 14 -10 36 36 undefined N/A 30.2 1023 N/A 0 0
9:54 am 09:54 undefined 41 5 15 -9.4 35 35 undefined N/A 30.21 1023 N/A 0 0
10:54 am 10:54 undefined 42 5.6 15 -9.4 33 33 undefined N/A 30.21 1023 N/A 0 0
11:54 am 11:54 undefined 45 7.2 17 -8.3 33 33 undefined N/A 30.23 1024 N/A 0 0
12:54 pm 12:54 undefined 46 7.8 16 -8.9 30 30 undefined N/A 30.2 1023 N/A 0 0
1:54 pm 13:54 undefined 48 8.9 17 -8.3 29 29 undefined N/A 30.19 1022 N/A 0 0
2:54 pm 14:54 undefined 49 9.4 19 -7.2 31 31 undefined N/A 30.16 1021 N/A 0 0
3:54 pm 15:54 undefined 50 10 19 -7.2 29 29 undefined N/A 30.14 1021 N/A 0 0
4:54 pm 16:54 undefined 51 10.6 17 -8.3 26 26 undefined N/A 30.14 1021 N/A 0 0
5:54 pm 17:54 undefined 50 10 16 -8.9 26 26 undefined N/A 30.09 1019 N/A 0 0
6:54 pm 18:54 undefined 50 10 16 -8.9 26 26 undefined N/A 30.1 1019 N/A 0 0
7:54 pm 19:54 undefined 50 10 17 -8.3 27 27 undefined N/A 30.11 1020 N/A 0 0
8:54 pm 20:54 undefined 49 9.4 20 -6.7 32 32 undefined N/A 30.11 1020 N/A 0 0
9:54 pm 21:54 undefined 48 8.9 19 -7.2 32 32 undefined N/A 30.13 1020 N/A 0 0
10:54 pm 22:54 undefined 48 8.9 23 -5 37 37 undefined N/A 30.14 1021 N/A 0 0
11:54 pm 23:54 undefined 47 8.3 26 -3.3 44 44 undefined N/A 30.13 1020 N/A 0 0

Powered by AerisWeather